This is the latest recevied weather packets stored in our database for station/object GW1601. If no packets are shown the sender has not sent any weather packets the latest 10 day(s).
| Time | Temp. | Humidity | Pressure | Rain* | Wind** | Luminosity | Snow |
|---|---|---|---|---|---|---|---|
| 1777925741 | 23.89° C | 53% | 983.4 hPa | 0 mm | - | - | - |
| 1777923576 | 24.44° C | 50% | 983.4 hPa | 0 mm | - | - | - |
| 1777922842 | 22.78° C | 51% | 983.4 hPa | 0 mm | - | - | - |
| 1777921789 | 23.33° C | 53% | 983.4 hPa | 0 mm | - | - | - |
| 1777921053 | 23.89° C | 49% | 983.4 hPa | 0 mm | - | - | - |
| 1777920335 | 23.89° C | 51% | 983.4 hPa | 0 mm | - | - | - |
| 1777917800 | 23.89° C | 54% | 983.4 hPa | 0 mm | - | - | - |
| 1777917468 | 23.89° C | 51% | 983.7 hPa | 0 mm | - | - | - |
| 1777915633 | 22.78° C | 51% | 984 hPa | 0 mm | - | - | - |
| 1777913498 | 22.22° C | 57% | 984.4 hPa | 0 mm | - | - | - |
| 1777911690 | 22.22° C | 55% | 984.4 hPa | 0 mm | - | - | - |
| 1777911312 | 21.67° C | 58% | 984.7 hPa | 0 mm | - | - | - |
| 1777909155 | 20° C | 59% | 985.4 hPa | 0 mm | - | - | - |
| 1777908790 | 19.44° C | 61% | 985.4 hPa | 0 mm | - | - | - |
| 1777905223 | 17.22° C | 63% | 985.7 hPa | 0 mm | - | - | - |
| 1777903777 | 17.78° C | 62% | 986.1 hPa | 0 mm | - | - | - |
| 1777898370 | 13.33° C | 68% | 986.4 hPa | 0 mm | - | - | - |
| 1777894049 | 10° C | 82% | 986.1 hPa | 0 mm | - | - | - |
| 1777892250 | 8.33° C | 83% | 986.1 hPa | 0 mm | - | - | - |
| 1777891872 | 8.33° C | 81% | 985.7 hPa | 0 mm | - | - | - |
| 1777891514 | 8.33° C | 83% | 986.1 hPa | 0 mm | - | - | - |
| 1777888309 | 6.67° C | 87% | 986.1 hPa | 0 mm | - | - | - |
| 1777887571 | 6.67° C | 88% | 986.4 hPa | 0 mm | - | - | - |
| 1777886132 | 7.22° C | 85% | 986.7 hPa | 0 mm | - | - | - |
| 1777885758 | 7.78° C | 84% | 986.7 hPa | 0 mm | - | - | - |
* Rain since midnight (hover to see other rain measurements)
** Current wind speed in m/s (hover to see current wind gust speed)